Terminal Aerodrome Forecast
Issued by NWS Miami, FL

Home | Current Version | Previous Version | Text Only | Print | Product List | Glossary On
Versions: 1 2 3 4 5 6 7 8 9 10 11 12 13 14 15 16 17 18 19 20 21 22 23 24 25
000
FTUS42 KMFL 252329
TAFPBI
TAF
KPBI 252329Z 2600/2624 13011KT P6SM FEW030 SCT050
     FM260200 VRB06KT P6SM FEW025
     FM261500 14009KT P6SM SCT030 SCT050=

USA.gov is the U.S. government's official web portal to all federal, state and local government web resources and services.